[Iaude] MPEC L106: 2013 VT79 [a=2.13,e=0.40,i=1.5,H=21.7]

mpec at marsden.cfa.harvard.edu mpec at marsden.cfa.harvard.edu
Wed Jun 15 16:23:40 EDT 2022


M.P.E.C. 2022-L106                                Issued 2022 June 15, 20:21 UT

     The Minor Planet Electronic Circulars contain information on unusual
         minor planets and routine data on comets.  They are published
    on behalf of Division F of the International Astronomical Union by the
          Minor Planet Center, Smithsonian Astrophysical Observatory,
                          Cambridge, MA 02138, U.S.A.

             Prepared using the Tamkin Foundation Computer Network

                              MPC at CFA.HARVARD.EDU
            URL https://www.minorplanetcenter.net/    ISSN 1523-6714

                                   2013 VT79                                    


Observations:
     K13V79T* C2013 11 08.41604 04 43 18.75 +24 13 07.2          21.4 VoEL106691
     K13V79T  C2013 11 08.43402 04 43 18.76 +24 13 12.5          21.2 VoEL106691
     K13V79T  C2013 11 08.45200 04 43 18.79 +24 13 17.4          21.1 VoEL106691
     K13V79T  C2013 11 12.42970 04 43 33.86 +24 31 44.8          20.6 VoEL106691
     K13V79T  C2013 11 12.44743 04 43 33.67 +24 31 48.5          21.0 VoEL106691
     K13V79T  C2013 11 12.46517 04 43 33.48 +24 31 52.7          21.2 VoEL106691
     K13V79T  C2013 11 28.23035 04 38 44.52 +25 19 07.5          20.4 VqEL106G96
     K13V79T  C2013 11 28.23732 04 38 44.30 +25 19 08.7          20.2 VqEL106G96
     K13V79T  C2013 11 28.24429 04 38 44.02 +25 19 09.5          20.3 VqEL106G96
     K13V79T  C2013 11 28.25127 04 38 43.78 +25 19 10.3          20.5 VqEL106G96
     K13V79T  C2013 12 10.27494 04 33 27.98 +25 30 27.4          20.9 VqEL106G96
     K13V79T  C2013 12 10.28014 04 33 27.81 +25 30 27.9          20.8 VqEL106G96
     K13V79T  C2013 12 10.28537 04 33 27.72 +25 30 27.9          21.5 VqEL106G96
     K13V79T  C2013 12 10.29058 04 33 27.49 +25 30 28.0          21.7 VqEL106G96

Observer details:
691 Steward Observatory, Kitt Peak-Spacewatch.  Observers R. S. McMillan, T.
    H. Bressi.  0.9-m f/3 reflector + CCD.
G96 Mt. Lemmon Survey.  Observers A. Boattini, A. D. Grauer.  Measurers A.
    Boattini, E. J. Christensen, A. R. Gibbs, A. D. Grauer, R. E. Hill, J. A.
    Johnson, R. A. Kowalski, S. M. Larson, F. C. Shelly.  1.5-m reflector +
    CCD.

Orbital elements:
2013 VT79                                                Earth MOID = 0.2861 AU
Epoch 2022 Aug. 9.0 TT = JDT 2459800.5                  Doppler                   
M 303.66115              (2000.0)            P               Q                  
n   0.31772475     Peri.  357.54057     +0.85618028     -0.51646254             
a   2.1270059      Node    33.56810     +0.47450059     +0.77455770             
e   0.3980867      Incl.    1.54330     +0.20446152     +0.36513944             
P   3.10           H   21.77          G   0.15           U   6                  
Residuals in seconds of arc
131108 691  0.0   0.3-    131112 691  0.1-  0.1+    131210 G96  0.1+  0.2-
131108 691  0.0   0.0     131128 G96  0.2-  0.2-    131210 G96  0.2-  0.2+
131108 691  0.2+  0.0     131128 G96  0.3+  0.0     131210 G96  0.6+  0.1+
131112 691  0.1-  0.4+    131128 G96  0.0   0.0     131210 G96  0.5-  0.1+
131112 691  0.1-  0.1-    131128 G96  0.2+  0.1-

Ephemeris:
2013 VT79                a,e,i = 2.13, 0.40, 2                   q = 1.2803
Date    TT    R. A. (2000) Decl.     Delta      r    Elong.  Phase     V
2022 05 16    18 56 58.6 -24 36 44   1.5526  2.3510   131.9    18.7    25.5
...
2022 05 31    18 51 39.1 -25 01 06   1.3674  2.2882   147.5    13.8    25.0
...
2022 06 08    18 45 28.5 -25 17 25   1.2860  2.2535   156.5    10.3    24.7
...
2022 06 14    18 39 24.7 -25 30 00   1.2342  2.2270   163.6     7.4    24.5
2022 06 15    18 38 17.6 -25 32 03   1.2264  2.2225   164.8     6.9    24.5
2022 06 16    18 37 08.7 -25 34 05   1.2189  2.2181   166.0     6.4    24.4
...
2022 06 22    18 29 42.6 -25 45 31   1.1787  2.1910   173.1     3.2    24.1
...
2022 06 30    18 18 43.2 -25 57 36   1.1393  2.1543   175.5     2.1    24.0
...
2022 07 15    17 57 48.2 -26 06 22   1.1092  2.0836   157.1    10.9    24.3

M. P. C. Staff               (C) Copyright 2022 MPC           M.P.E.C. 2022-L106




More information about the Iaude mailing list